Weather History for KLLJ - June, 2014

Change the Weather History Date:

Tuesday, June 3, 2014

  Actual Average Record
Temperature  
Mean Temperature 64 °F 57 °F  
Max Temperature 80 °F 71 °F 90 °F (1969)
Min Temperature 47 °F 43 °F 28 °F (1951)
Degree Days  
Heating Degree Days 1 9  
Month to date heating degree days 13 27  
Since 1 June heating degree days 13 27  
Since 1 July heating degree days 7580 8023  
Cooling Degree Days 0 0  
Month to date cooling degree days 0 0  
Year to date cooling degree days 0 2  
Since 1 June cooling degree days 0 0  
Growing Degree Days 12 (Base 50)    
Moisture  
Dew Point 29 °F    
Average Humidity 35    
Maximum Humidity 60    
Minimum Humidity 10    
Precipitation  
Precipitation 0.00 in 0.07 in 0.80 in (1984)
Month to date precipitation T 0.20  
Year to date precipitation 2.75 4.34  
Sea Level Pressure  
Sea Level Pressure 29.71 in    
Wind  
Wind Speed 7 mph (West)    
Max Wind Speed 22 mph    
Max Gust Speed 29 mph    
Visibility 10 miles    
Events      
T = Trace of Precipitation, MM = Missing Value Source: NWS Daily Summary

Daily Weather History Graph

Daily Weather History Graph

Search for Another Location

Airport or City:

Trip Planner

Search our weather history database for the weather conditions in past years. The results will help you decide how hot, cold, wet, or windy it might be!

Date:

Astronomy

Jun. 03, 2014 Rise Set
Actual Time 5:54 AM MDT 9:16 PM MDT
Civil Twilight 5:18 AM MDT 9:52 PM MDT
Nautical Twilight 4:31 AM MDT 10:39 PM MDT
Astronomical Twilight 3:32 AM MDT 11:39 PM MDT
Moon 11:29 AM MDT (6/3) 12:38 AM MDT (6/3)
Length of Visible Light 16h 34m
Length of Day
15h 22m
Waxing Crescent, 30% of the Moon is Illuminated
Jun 3
Waxing Crescent
Jun 5
First Quarter
Jun 12
Full
Jun 19
Last Quarter
Jun 27
New

Hourly Weather History & Observations

Time (MDT) Temp. Dew Point Humidity Pressure Visibility Wind Dir Wind Speed Gust Speed Precip Events Conditions
12:55 AM 59.0 °F 30.0 °F 33% 29.69 in 10.0 mi NW 6.9 mph - N/A   Clear
1:55 AM 55.9 °F 32.0 °F 40% 29.68 in 10.0 mi Calm Calm - N/A   Clear
2:55 AM 51.1 °F 34.0 °F 52% 29.69 in 10.0 mi SE 6.9 mph - N/A   Clear
3:55 AM 54.0 °F 30.9 °F 41% 29.68 in 10.0 mi SSE 6.9 mph - N/A   Clear
4:55 AM 46.9 °F 34.0 °F 61% 29.71 in 10.0 mi Calm Calm - N/A   Clear
5:55 AM 48.0 °F 32.0 °F 54% 29.71 in 10.0 mi NNW 3.5 mph - N/A   Clear
6:55 AM 50.0 °F 33.1 °F 52% 29.73 in 10.0 mi Calm Calm - N/A   Clear
7:55 AM 55.9 °F 35.1 °F 45% 29.72 in 10.0 mi Calm Calm - N/A   Clear
8:55 AM 61.0 °F 32.0 °F 34% 29.72 in 10.0 mi Variable 3.5 mph - N/A   Clear
9:55 AM 64.9 °F 36.0 °F 34% 29.72 in 10.0 mi ENE 4.6 mph - N/A   Clear
10:55 AM 69.1 °F 34.0 °F 27% 29.71 in 10.0 mi ESE 5.8 mph - N/A   Clear
11:55 AM 72.0 °F 30.0 °F 21% 29.70 in 10.0 mi Variable 3.5 mph - N/A   Scattered Clouds
12:55 PM 75.9 °F 28.9 °F 18% 29.69 in 10.0 mi Variable 4.6 mph - N/A   Clear
1:55 PM 78.1 °F 18.0 °F 10% 29.68 in 10.0 mi West 12.7 mph 20.7 mph N/A   Clear
2:55 PM 77.0 °F 21.0 °F 12% 29.69 in 10.0 mi Variable 5.8 mph - N/A   Clear
3:55 PM 77.0 °F 17.1 °F 10% 29.68 in 10.0 mi West 8.1 mph 21.9 mph N/A   Clear
4:55 PM 78.1 °F 21.0 °F 12% 29.70 in 10.0 mi West 15.0 mph 23.0 mph N/A   Mostly Cloudy
5:55 PM 78.1 °F 21.0 °F 12% 29.72 in 10.0 mi SW 16.1 mph 20.7 mph N/A   Clear
6:55 PM 75.9 °F 25.0 °F 15% 29.73 in 10.0 mi WSW 11.5 mph - N/A   Clear
7:55 PM 73.0 °F 23.0 °F 15% 29.73 in 10.0 mi WSW 11.5 mph - N/A   Clear
9:55 PM 66.0 °F 28.0 °F 24% 29.77 in 10.0 mi North 6.9 mph - N/A   Clear
11:55 PM 55.9 °F 32.0 °F 40% 29.82 in 10.0 mi NNW 6.9 mph - N/A   Clear